Theta_e
303 304 304 304 304 304 305 305 306 305 304 305 304 308 306 306 298 310 315 316 312 303 297 298 296 296 297 300 299 299 297 295 296 296 298 296 299 297 297 296 295 297 296 296 295 296 293 295 293 297 298 300 301 303 303 304 303 302 299 300 302 304 292 292 293 296 298 300 302 302 302 301 298 299 299 297 295 296 294 293 296 291 291 289 288 286 292
303 303 303 304 304 305 305 305 305 305 304 304 306 304 304 304 302 305 312 316 310 300 289 290 292 296 298 298 297 299 297 297 295 295 297 296 296 296 296 297 298 296 299 297 294 297 290 296 295 295 299 298 304 303 303 304 301 300 304 295 303 292 295 293 289 288 291 294 296 297 300 299 296 295 299 299 299 298 300 298 297 289 292 291 288 283 288
303 304 304 304 304 304 305 305 305 305 305 305 306 302 305 305 307 304 308 310 308 297 300 295 293 295 296 296 294 296 296 298 297 297 296 299 297 296 295 297 298 296 297 296 297 298 295 294 297 299 299 299 303 303 303 304 303 303 304 308 303 294 295 292 285 283 281 281 283 284 286 291 295 297 298 298 297 298 298 289 293 287 292 292 289 289 297
303 303 303 303 304 304 305 305 305 304 304 304 307 305 303 299 290 298 300 304 304 300 304 301 296 293 294 291 294 295 294 297 298 298 297 298 298 298 297 298 298 296 296 294 294 294 298 294 295 296 296 299 301 303 303 303 303 307 313 307 303 296 299 296 292 289 288 290 292 296 296 295 291 295 296 297 299 298 299 298 290 288 292 290 294 295 295
303 303 303 303 304 304 305 305 304 304 304 304 305 307 306 302 294 293 291 299 301 297 301 297 298 293 296 289 294 292 295 296 297 299 294 298 297 298 297 296 294 294 294 294 293 295 295 297 295 295 297 297 300 303 303 303 304 308 303 308 301 298 291 296 296 295 295 296 295 296 296 293 294 294 295 297 297 300 296 291 290 296 292 286 293 299 297
302 303 303 303 304 304 304 305 304 303 303 304 310 303 302 293 296 300 300 294 290 292 292 297 296 297 296 292 297 293 293 294 292 297 298 298 299 294 296 296 296 295 294 295 291 293 294 295 291 296 296 298 300 299 303 301 306 306 302 304 301 297 291 297 296 295 296 297 296 297 295 294 294 294 296 296 298 298 296 295 297 297 290 288 295 299 297
302 303 303 303 304 304 304 305 304 303 302 304 311 300 303 301 300 301 304 295 296 296 297 297 295 294 295 294 294 292 293 292 295 295 296 295 295 296 289 293 294 295 296 295 292 294 290 290 298 299 298 298 297 296 297 303 304 302 301 301 303 299 293 297 296 294 295 295 296 296 294 294 294 294 295 297 297 297 297 298 300 300 296 299 299 299 298
302 302 303 303 303 304 304 305 305 304 302 309 305 301 299 296 297 295 302 300 297 297 297 296 295 291 294 290 292 293 293 291 294 296 295 290 295 298 294 295 295 294 297 297 295 297 299 298 292 300 299 298 299 297 299 295 300 301 300 301 307 299 293 297 298 293 293 296 296 296 294 294 292 294 295 295 295 296 297 296 295 299 299 300 299 297 295
302 302 302 303 303 304 304 305 305 303 303 310 303 301 302 303 304 304 297 293 293 296 295 294 293 290 292 290 291 293 293 292 296 294 298 296 294 296 294 296 297 298 297 296 295 297 298 298 299 299 299 294 300 297 297 300 298 299 299 301 303 301 293 298 297 288 289 294 294 294 294 294 293 293 294 295 294 291 295 293 298 295 294 298 296 292 291
301 302 302 303 303 304 304 305 305 304 304 309 306 298 305 306 307 306 300 292 294 293 295 294 291 287 290 289 292 292 293 296 297 289 296 298 297 297 297 298 296 295 295 294 295 297 298 299 299 300 300 302 301 302 301 301 298 298 298 297 295 298 295 292 291 288 287 293 294 293 293 291 287 289 293 295 296 295 295 297 298 299 299 293 290 292 298
301 301 302 302 303 304 304 305 305 304 306 305 305 303 302 300 300 302 302 292 291 293 292 291 290 289 294 295 292 295 295 295 296 291 289 298 297 298 298 296 294 292 292 295 300 301 301 301 301 302 301 300 300 301 301 300 300 302 299 297 295 297 295 291 295 287 287 293 293 294 288 281 283 294 301 298 295 294 293 292 294 298 299 296 299 298 298
301 301 302 302 303 303 304 305 305 305 304 306 308 305 303 304 304 303 296 290 289 295 292 290 292 293 292 292 294 293 294 294 295 297 292 295 297 298 297 296 295 288 296 301 302 302 303 303 301 301 300 300 300 300 300 299 299 301 303 299 297 295 296 291 296 288 286 290 292 286 280 283 292 298 299 300 298 297 295 294 296 298 298 299 298 298 298
301 301 302 302 303 303 304 305 305 305 305 306 307 304 305 308 304 301 297 292 288 291 289 291 294 295 294 292 293 295 295 296 298 298 297 295 296 297 297 295 294 294 300 299 301 301 298 297 297 297 297 298 298 298 298 298 298 300 301 301 298 291 292 292 290 291 290 288 287 279 281 291 295 296 299 300 299 298 296 293 295 298 298 299 297 296 294
301 301 301 302 302 303 304 305 305 305 305 306 306 309 305 307 304 302 299 293 288 293 294 293 293 294 294 292 294 293 294 296 297 298 294 296 294 295 297 297 297 300 300 301 299 299 294 296 291 292 292 294 294 293 295 297 298 298 299 299 300 297 296 293 288 291 285 287 287 285 291 291 292 292 294 296 292 294 292 286 292 298 296 296 294 293 293
301 301 301 302 302 303 304 304 305 305 305 305 308 306 306 307 307 305 305 298 290 291 294 287 291 293 294 292 293 293 294 294 292 292 295 297 294 295 297 298 301 300 301 298 295 297 294 291 287 287 289 288 284 286 295 291 298 299 298 299 298 300 292 293 289 286 290 285 284 285 283 281 286 292 296 300 300 299 299 295 290 298 297 297 294 292 293
301 301 301 301 302 303 304 304 305 305 305 305 308 306 305 309 309 308 304 295 293 286 290 295 296 295 293 293 294 292 290 290 291 292 293 292 292 295 297 299 301 301 300 298 296 293 290 287 285 285 283 285 288 286 285 291 290 297 298 297 297 298 300 293 290 287 287 286 282 281 280 281 288 290 293 295 296 299 299 292 286 295 296 296 295 293 293
300 301 301 301 302 303 303 304 304 305 305 304 305 307 303 309 307 305 303 297 294 288 295 296 298 297 294 292 295 292 294 290 292 288 287 289 291 292 295 298 302 300 297 295 294 291 289 288 290 288 289 290 286 285 291 289 288 288 294 297 295 295 293 291 288 286 287 285 282 281 283 283 289 293 294 294 297 297 294 282 283 295 296 296 295 294 294
300 301 301 301 302 302 303 304 304 305 305 304 306 307 303 310 311 308 304 297 292 291 295 296 294 292 291 293 292 295 296 295 294 295 291 293 292 292 293 295 293 297 297 290 291 289 288 287 285 285 284 291 291 291 282 288 284 285 287 289 289 289 289 290 286 286 286 285 284 284 284 290 294 293 294 295 298 294 284 280 287 295 298 298 298 296 298
301 301 301 301 302 302 303 304 304 305 305 305 307 309 302 308 309 309 304 297 294 288 294 297 298 295 297 298 296 296 296 295 294 291 289 289 291 295 296 296 296 290 296 291 292 288 287 287 291 289 286 288 290 285 291 286 285 289 289 287 287 288 287 287 289 285 284 285 282 282 284 289 293 296 295 296 292 283 281 290 298 298 296 297 295 295 295
301 301 301 301 302 302 303 304 304 305 305 306 306 306 305 307 309 308 301 296 296 292 294 295 295 293 296 294 291 291 293 294 294 292 290 287 294 296 295 290 294 295 292 294 286 289 286 285 288 290 286 287 289 292 287 288 291 288 288 290 287 287 284 283 283 285 286 286 283 281 277 286 295 296 293 296 287 286 293 296 297 298 296 296 296 295 295
301 301 300 301 302 302 303 304 304 305 305 306 305 307 304 307 310 309 309 302 297 291 292 298 298 296 296 295 296 294 294 291 292 290 292 293 296 294 284 284 289 292 288 289 286 285 287 285 288 287 290 289 290 289 284 285 288 292 290 289 289 292 285 285 286 288 282 282 279 279 285 291 296 295 287 292 293 295 296 295 293 296 297 296 296 296 297
301 301 301 301 302 302 303 304 304 304 305 306 305 311 303 306 308 308 308 306 297 293 296 300 300 299 299 299 299 299 297 296 297 297 293 291 297 293 293 295 293 293 293 295 292 289 291 290 292 287 286 288 292 286 289 285 283 288 293 291 283 291 289 289 285 290 287 284 285 290 293 294 296 296 295 295 296 297 296 296 296 295 295 297 295 294 296
301 301 301 301 301 302 303 303 304 304 305 305 305 308 303 304 305 309 309 301 302 302 303 301 300 299 300 300 300 301 301 301 300 299 298 293 292 293 291 292 293 298 297 296 291 292 290 290 286 290 288 289 287 286 289 287 284 287 285 291 291 294 295 295 292 288 293 294 294 294 294 294 294 296 295 294 295 297 296 295 293 295 295 295 294 296 297
301 301 301 301 301 302 302 303 303 304 304 305 305 306 306 306 305 306 305 301 297 293 295 299 296 291 294 294 298 301 301 301 301 301 303 301 291 290 294 295 296 298 295 297 298 293 291 290 290 292 286 290 291 286 283 283 285 289 288 288 291 293 294 292 288 291 288 283 292 292 292 293 293 293 295 295 295 295 295 294 293 293 294 294 295 294 294
301 301 301 301 301 302 302 303 303 304 304 304 305 307 309 305 305 304 302 293 294 293 288 290 292 296 299 300 300 299 300 302 303 302 301 301 298 293 291 296 300 294 294 296 298 295 293 288 290 289 285 290 291 285 290 286 286 290 285 287 289 288 294 289 290 290 286 286 291 292 294 294 294 294 293 293 293 294 294 294 294 294 295 295 295 295 294
301 301 301 300 301 302 302 303 303 303 303 304 305 306 305 302 305 307 305 305 304 294 290 289 293 299 300 298 296 298 301 302 301 300 300 300 300 300 298 299 300 303 300 300 296 292 290 289 289 289 287 287 294 288 287 289 289 292 288 287 291 291 293 286 290 287 290 292 293 293 293 293 293 294 295 294 294 294 294 294 294 294 293 293 294 295 294
301 301 301 301 301 301 302 302 303 303 303 303 304 306 306 306 307 303 300 301 298 292 293 289 293 296 298 296 299 301 301 301 301 300 299 299 299 300 300 298 297 297 296 296 296 292 292 289 288 286 288 287 292 291 291 289 289 287 286 290 294 291 287 290 289 285 285 286 289 292 286 285 290 292 294 294 295 295 294 295 294 295 294 293 292 292 293
300 301 301 301 301 301 302 302 302 302 303 303 305 307 309 305 306 305 305 304 299 293 292 292 292 295 300 297 299 300 300 301 300 300 299 298 299 299 298 297 297 295 294 292 289 289 288 286 285 289 289 292 290 288 291 290 291 289 289 289 292 289 290 289 286 285 285 291 293 293 293 292 292 293 295 295 296 296 294 293 294 294 294 294 294 292 293
300 301 301 301 301 301 302 302 302 302 303 303 306 307 307 307 309 306 304 306 305 300 297 295 296 297 290 294 300 299 300 301 300 299 299 298 298 298 298 297 295 295 295 292 290 290 288 288 289 288 287 291 290 286 288 284 285 284 287 291 292 292 294 293 292 292 292 294 293 294 292 290 293 294 295 295 296 295 293 293 293 293 293 294 294 293 293
301 301 301 301 301 301 301 302 302 302 303 304 305 304 299 300 307 306 304 305 304 303 295 290 287 289 299 298 297 298 298 299 299 299 298 298 298 297 297 298 296 296 296 290 289 286 289 289 289 293 293 296 287 286 284 285 284 286 292 292 292 294 293 294 295 293 290 294 295 295 294 294 295 295 295 295 295 295 294 293 293 294 294 294 293 293 294
301 301 300 301 301 301 302 302 302 302 303 303 303 297 294 291 300 305 303 306 307 301 295 294 289 293 293 298 298 295 297 298 298 298 298 298 298 297 298 298 296 294 290 290 289 288 289 286 287 291 294 291 288 286 285 284 283 285 290 291 292 292 292 292 295 295 295 294 295 295 295 294 295 294 294 294 293 293 294 294 294 294 293 293 293 293 293
300 300 301 301 301 301 302 302 302 302 304 305 300 298 297 297 301 304 305 306 306 302 295 290 288 288 289 293 297 298 298 299 299 299 298 299 297 298 299 297 293 296 292 290 290 290 287 288 287 289 290 290 289 286 286 285 284 284 290 291 292 292 293 293 293 294 294 294 293 292 292 292 293 292 291 294 294 294 293 294 294 293 292 293 293 292 292
300 300 301 301 301 301 301 302 302 302 305 304 303 304 302 300 302 305 305 306 304 300 301 292 287 287 287 291 297 297 297 298 297 297 295 297 296 296 294 297 297 296 298 292 288 287 291 289 288 287 291 294 286 286 284 284 286 290 291 291 292 292 292 293 293 294 293 294 294 290 288 290 291 294 294 294 294 294 293 292 294 294 293 292 292 292 292
300 301 301 301 302 301 301 301 302 301 302 302 301 304 307 302 306 304 306 307 304 303 296 290 286 286 286 295 292 295 298 293 292 294 289 296 297 296 291 294 295 289 293 290 290 290 290 289 287 287 291 287 287 285 282 285 290 290 290 292 292 292 292 292 292 292 293 293 293 294 293 294 294 293 293 293 293 294 294 293 293 292 292 291 291 292 292
301 301 301 302 301 302 302 301 304 303 300 302 303 304 306 302 301 303 305 305 294 290 289 289 290 286 286 287 287 291 298 295 290 294 290 293 299 293 293 289 292 288 289 296 289 289 288 288 291 286 284 289 285 282 283 287 289 290 290 291 292 292 291 290 291 292 293 293 293 293 293 293 292 292 292 292 292 293 292 292 293 292 291 291 291 291 292
301 302 302 301 301 301 303 302 301 303 300 300 301 305 301 303 306 308 309 310 303 294 289 288 289 287 287 284 284 289 298 294 296 296 294 291 294 296 294 290 286 289 294 290 286 292 288 292 288 283 288 284 283 285 287 289 289 290 290 290 291 292 291 291 291 292 292 293 293 293 293 292 291 291 292 292 292 292 292 292 292 292 291 291 291 291 291
301 302 302 300 302 302 298 298 302 302 301 303 303 303 302 303 304 305 306 303 306 304 294 290 289 288 289 287 289 290 295 287 292 290 292 290 288 290 290 288 285 288 288 287 288 286 289 294 287 284 284 283 285 289 291 291 291 290 290 291 292 292 292 293 293 293 292 292 292 292 292 291 291 291 291 291 291 292 291 290 291 291 290 290 290 290 291
302 302 301 301 301 294 292 295 303 305 303 302 303 302 302 300 295 295 295 293 298 296 294 295 289 292 294 292 286 293 292 289 294 288 289 291 288 288 290 288 287 287 282 285 287 293 290 287 285 284 284 289 291 291 291 292 292 293 292 292 292 293 293 293 293 292 290 289 289 290 290 290 290 291 290 290 291 291 290 292 292 292 292 291 291 291 291
302 301 301 301 299 294 295 300 306 300 305 303 303 297 291 293 292 289 289 290 290 289 293 292 288 292 292 290 291 297 293 288 287 290 286 291 287 284 288 283 287 287 283 284 286 293 284 285 285 285 284 287 287 289 291 292 293 293 293 293 294 293 293 293 293 292 291 290 290 291 290 289 289 290 291 291 291 292 292 292 292 292 292 292 291 291 291
302 299 295 295 295 297 303 304 303 302 301 296 296 293 287 291 288 284 291 287 288 290 292 287 292 293 292 289 288 290 297 292 286 286 286 289 294 285 287 287 288 285 280 281 284 291 284 280 284 283 283 286 287 291 292 292 291 293 293 293 294 293 293 293 293 294 294 293 293 293 293 293 292 291 291 291 291 291 291 292 292 292 292 292 291 292 291
301 300 298 294 299 302 301 303 304 302 296 290 289 289 287 285 289 290 288 286 286 287 292 292 293 292 293 294 293 288 295 298 296 295 289 286 292 291 286 283 289 283 281 281 287 287 285 283 283 282 283 287 288 290 291 292 292 292 293 294 294 294 294 294 294 294 293 293 293 293 293 293 293 292 293 292 292 292 289 289 292 292 292 292 291 291 291
297 297 299 302 303 303 302 300 298 292 290 291 286 283 286 286 288 288 289 284 284 288 290 291 287 289 289 291 291 293 293 297 293 289 288 285 288 286 284 286 287 281 278 285 288 286 284 280 280 281 286 288 290 291 291 291 291 292 292 293 293 294 293 293 293 294 294 293 293 293 293 293 293 293 293 293 292 293 292 292 291 291 292 293 293 292 292
301 301 302 302 298 295 296 290 291 290 283 283 282 281 284 283 284 284 285 289 291 291 290 296 294 295 296 298 294 296 292 297 290 290 287 285 289 288 285 284 282 278 283 289 286 283 280 279 280 283 288 289 291 290 291 291 292 292 292 293 293 294 294 293 293 293 294 294 293 293 293 293 293 294 294 293 293 293 293 292 292 291 291 292 292 293 293
303 303 299 295 291 291 292 281 290 287 284 285 282 277 281 281 284 286 285 286 288 289 292 291 292 290 286 292 290 289 291 295 293 290 288 290 286 284 283 280 281 287 290 284 283 280 281 283 284 285 288 289 291 291 291 291 292 292 292 293 293 294 294 294 293 293 293 294 294 294 294 294 293 294 294 294 293 292 293 292 292 291 292 293 293 292 293
295 291 291 288 286 288 286 278 289 285 280 282 285 284 284 282 285 286 285 289 293 289 291 292 292 291 288 293 293 291 290 287 292 286 284 286 283 285 282 281 286 286 282 279 281 282 282 281 285 287 288 288 289 290 291 291 292 291 292 292 293 293 293 293 293 293 293 293 293 293 293 293 293 293 293 293 294 294 293 293 293 292 293 292 292 292 293
290 288 287 282 277 283 285 282 283 282 286 287 286 288 288 288 289 289 293 294 292 291 290 292 292 291 289 292 287 287 290 289 286 286 287 287 282 280 286 289 287 281 280 280 278 277 280 283 285 286 288 289 289 290 291 291 292 292 292 291 292 292 293 293 293 293 293 293 294 293 293 293 293 293 293 293 294 294 293 294 294 294 293 292 292 292 293
291 291 290 288 282 285 288 283 283 287 289 289 291 291 291 291 292 292 294 294 292 293 292 293 292 293 288 289 289 289 289 289 284 287 288 283 282 284 288 283 278 280 277 276 277 279 282 284 286 287 289 290 290 291 291 291 292 292 292 292 293 293 293 293 293 293 294 294 293 293 293 293 293 293 293 293 293 294 294 294 294 294 293 293 293 293 293
287 291 290 282 280 285 283 286 292 292 293 293 292 293 294 294 291 290 292 295 295 294 293 292 289 290 289 293 291 286 287 288 285 285 287 285 286 282 281 280 279 281 281 279 279 283 284 286 287 288 289 291 291 290 291 291 292 292 292 292 292 293 294 293 292 292 294 293 293 292 293 293 293 293 293 293 293 294 295 295 295 295 294 294 293 293 293
291 289 286 285 287 287 288 292 291 288 290 292 293 293 292 291 291 292 293 295 294 293 294 292 289 288 285 289 286 286 283 287 281 282 286 284 279 277 277 275 277 276 282 284 283 285 286 288 290 289 291 292 292 292 291 291 292 292 292 292 292 292 292 292 293 293 294 293 293 293 293 294 294 294 293 293 292 293 295 295 295 295 294 294 293 293 293
289 288 289 288 287 288 292 291 289 287 290 290 290 290 291 290 291 293 295 293 294 293 293 291 292 287 287 287 283 285 284 286 285 285 283 280 281 282 280 276 279 279 281 285 285 287 288 290 291 290 291 292 293 293 293 293 292 292 293 293 293 293 293 293 292 293 294 294 293 293 294 294 293 292 292 292 293 293 294 294 295 294 294 295 294 293 292
292 290 290 293 288 288 289 285 286 286 287 288 288 290 291 290 291 292 296 295 295 291 289 286 288 287 285 284 283 279 282 287 284 282 282 281 284 282 279 278 281 284 285 287 288 289 290 291 290 290 290 291 292 293 293 292 292 292 293 293 293 293 293 293 293 293 293 294 294 291 293 293 295 297 294 294 294 294 293 293 293 294 294 295 295 295 294
289 286 286 290 293 292 292 291 290 290 290 291 291 292 292 290 292 294 296 294 292 287 285 288 287 285 283 280 283 285 287 285 282 283 280 283 285 282 282 283 285 286 287 288 288 290 290 290 290 289 291 291 291 293 293 293 294 294 294 294 293 293 294 294 294 294 293 293 294 294 294 295 294 294 294 294 294 293 292 292 293 294 294 294 295 296 295
Wind_Speed
21 22 24 25 26 26 25 26 24 22 23 11 9 8 5 4 2 4 6 5 6 5 7 7 6 9 10 13 17 16 12 11 11 13 7 9 8 10 10 13 14 11 9 8 10 10 9 6 8 7 5 8 2 6 10 13 13 4 5 5 2 2 2 4 6 8 11 11 9 10 13 12 10 11 8 7 10 10 8 7 8 6 3 3 2 3 3
21 23 25 25 26 26 25 25 23 21 17 10 10 8 7 7 1 4 6 4 3 5 4 4 7 9 10 11 14 14 15 13 11 11 7 6 7 9 10 13 15 12 7 9 9 6 6 5 3 4 3 5 5 4 6 11 9 5 2 6 4 3 3 7 3 2 4 6 5 11 11 9 7 7 6 10 8 4 3 5 5 3 3 4 2 1 3
22 22 24 26 27 26 25 24 22 21 17 12 6 6 7 8 4 1 2 2 2 6 5 4 6 8 9 6 12 13 10 8 10 9 10 9 11 11 10 13 11 10 9 12 11 13 11 5 4 6 7 4 7 6 4 7 9 11 4 8 6 1 2 5 6 6 7 5 6 1 3 9 9 12 14 12 12 11 2 2 4 5 4 8 3 2 4
21 22 24 26 26 26 25 24 24 23 18 13 6 6 7 4 3 4 1 2 3 4 4 5 7 9 9 7 8 11 11 8 9 10 11 10 9 9 10 12 12 12 12 14 13 11 10 12 5 4 3 6 5 7 9 1 10 4 5 4 5 2 2 4 5 6 2 2 2 2 5 7 10 12 12 15 16 14 6 6 3 3 2 3 5 2 9
22 22 24 26 26 26 25 26 26 25 23 11 6 5 5 5 2 4 3 4 4 8 6 8 7 5 10 4 7 9 9 6 5 3 7 5 8 7 8 8 6 8 10 9 10 11 12 11 10 8 9 1 4 6 11 12 11 5 1 3 3 3 2 7 7 7 6 7 6 0 4 6 11 14 13 14 18 17 10 4 5 4 5 3 3 6 8
22 22 23 25 26 26 26 27 27 27 27 18 4 6 5 2 4 3 3 3 5 6 5 9 9 6 4 5 6 9 14 6 4 1 7 6 3 6 5 9 9 9 9 9 7 8 10 11 7 11 7 7 10 7 6 9 9 11 6 7 5 6 4 6 6 9 10 9 6 6 5 4 7 14 11 13 13 17 18 8 7 8 3 2 7 7 13
22 23 23 24 26 25 26 26 28 28 30 21 5 6 5 5 3 4 5 1 5 5 6 11 8 6 10 2 5 8 12 8 5 2 5 6 1 5 4 7 10 11 11 10 9 5 5 3 10 7 7 5 2 3 9 13 5 8 6 5 4 3 4 6 8 8 9 8 7 6 7 7 7 8 10 10 10 11 12 15 13 4 3 12 13 13 12
22 22 23 23 25 25 25 26 27 29 31 19 2 7 7 6 5 2 1 5 5 5 6 7 8 7 11 2 10 8 9 3 7 8 5 2 5 5 7 8 8 7 8 14 8 7 4 5 2 8 8 4 5 3 4 2 13 7 5 2 7 6 0 6 4 6 7 7 6 4 4 7 10 9 7 5 11 10 12 12 16 12 9 13 15 16 12
22 22 22 23 23 24 24 25 25 28 27 8 8 6 7 4 3 3 5 2 4 4 6 8 8 6 8 8 9 8 13 13 13 8 9 7 6 7 8 9 9 5 8 9 8 10 8 9 5 8 5 3 3 3 3 8 1 10 1 3 4 4 1 3 5 3 3 4 3 3 4 2 6 9 11 8 7 7 8 5 6 5 5 12 12 10 7
22 21 22 22 23 24 24 24 25 25 25 7 8 8 6 7 5 6 5 5 1 4 5 7 6 7 4 3 9 8 12 10 9 2 6 9 9 12 11 8 3 6 9 9 12 11 9 9 9 7 8 7 5 5 5 8 6 4 5 6 7 7 3 3 4 4 3 6 5 4 5 2 4 5 7 10 5 5 3 8 9 3 2 2 2 6 9
21 21 22 22 23 23 23 23 22 23 15 9 8 7 7 7 8 8 6 4 3 6 6 6 6 2 5 6 8 8 8 11 10 7 3 8 9 11 11 11 8 6 9 10 11 11 10 8 8 7 7 8 7 3 3 5 6 5 6 4 1 6 5 4 6 4 0 6 5 4 3 4 0 3 8 4 10 6 6 7 6 9 3 1 8 12 11
21 21 21 22 22 23 23 23 22 21 16 9 7 6 6 7 7 8 5 3 3 4 5 7 4 4 3 6 8 7 7 8 8 7 6 7 8 9 10 10 9 4 9 11 10 9 10 9 8 7 7 8 8 7 4 5 4 0 10 6 5 4 3 1 4 2 0 2 3 2 5 2 3 5 6 7 11 11 11 8 7 8 13 12 13 12 10
21 20 21 21 22 23 23 23 23 21 19 12 9 7 7 8 7 8 6 5 5 7 6 7 6 8 7 3 2 7 6 7 7 6 5 6 8 8 8 8 9 10 12 12 12 11 8 5 5 6 7 7 8 6 7 5 4 6 5 13 7 3 2 1 2 0 2 2 3 3 1 4 3 6 5 10 9 9 10 9 6 6 5 9 12 14 15
20 20 20 21 22 22 22 23 23 22 20 15 8 8 7 9 8 8 6 4 4 7 11 7 8 10 8 5 4 3 5 5 5 6 8 5 7 8 8 8 9 10 10 11 11 7 5 3 2 2 3 3 2 3 3 5 1 3 2 4 6 2 5 0 1 1 2 2 4 1 6 6 4 4 6 4 4 2 1 2 5 7 10 12 14 14 14
19 19 20 21 21 21 22 22 23 23 22 22 8 4 7 8 8 7 8 6 3 6 8 6 6 10 7 7 6 2 3 3 6 5 6 3 7 8 9 9 9 10 10 10 7 5 3 1 3 1 2 2 1 1 4 4 9 8 5 4 2 7 1 2 1 1 1 1 3 2 1 4 4 9 7 2 3 6 4 8 6 9 11 12 12 13 12
19 19 19 20 21 21 22 22 22 22 21 24 11 8 6 9 9 7 9 5 5 5 8 8 8 9 6 8 8 9 6 3 3 1 4 3 5 7 9 9 8 9 9 8 7 3 4 3 2 1 1 2 2 2 2 4 4 12 4 6 5 4 11 6 4 2 2 2 1 2 2 2 4 6 9 11 11 5 4 2 4 6 11 11 13 12 12
19 19 19 20 20 21 22 21 21 21 20 19 10 10 6 10 9 9 8 4 6 6 8 11 9 6 7 7 7 7 7 4 7 3 2 3 4 6 6 7 5 3 9 7 7 3 2 2 3 4 3 4 3 2 5 3 2 5 11 3 0 1 1 2 4 3 2 3 3 2 2 2 3 5 5 6 8 12 5 3 4 8 11 12 12 13 13
19 18 19 19 20 21 21 21 22 21 21 22 11 8 6 8 9 10 7 4 3 6 8 11 10 8 8 8 7 8 6 7 10 4 3 9 9 7 7 4 7 7 4 2 5 4 3 2 2 2 2 3 5 3 3 3 3 3 6 6 4 3 2 2 3 3 3 4 2 5 3 3 6 6 5 6 6 5 1 2 5 3 9 9 9 8 5
18 18 18 19 19 21 21 21 22 22 21 21 14 8 6 8 10 10 8 6 5 5 8 10 9 9 10 9 8 9 8 9 10 5 6 5 7 10 11 4 6 4 4 4 3 3 2 1 2 2 1 1 3 1 2 0 1 2 6 4 5 3 3 3 3 2 4 2 3 4 4 2 7 6 3 6 4 1 3 0 2 9 12 15 17 14 13
18 17 18 18 19 20 21 21 22 21 21 19 12 7 5 8 8 9 10 6 4 7 7 9 10 12 9 11 10 10 9 9 10 8 8 7 10 15 4 4 8 6 5 9 1 2 4 3 3 1 0 2 3 6 2 2 1 4 5 7 3 5 3 4 4 3 3 2 1 4 2 1 7 6 2 10 2 3 2 2 8 10 11 9 12 14 14
17 17 17 18 18 20 20 21 21 21 22 22 16 6 4 7 7 8 8 9 5 3 5 7 8 10 9 10 10 11 11 10 9 9 9 8 9 7 6 5 7 5 5 5 6 2 1 3 7 4 3 3 4 4 1 3 3 11 6 6 6 8 3 2 3 4 3 5 5 4 3 4 7 7 5 6 8 7 8 7 10 11 8 9 9 10 10
16 17 17 17 18 19 19 20 21 20 21 21 21 9 4 5 5 6 9 7 5 2 3 3 3 8 7 7 7 8 9 10 10 8 8 7 6 8 7 8 7 6 5 7 6 4 7 6 4 2 4 5 6 4 7 2 1 6 8 6 1 10 6 5 5 8 4 5 5 6 4 6 7 8 9 8 10 11 12 12 9 9 9 10 10 11 11
15 16 16 17 17 18 19 19 20 20 20 21 16 7 7 6 6 9 10 4 3 3 4 3 3 6 5 8 7 6 6 7 8 8 8 9 3 7 8 7 7 6 5 6 6 7 7 6 5 5 4 6 5 6 5 3 2 6 3 6 5 6 6 4 7 9 12 11 9 8 8 8 10 11 12 12 11 11 12 12 11 9 9 8 8 7 6
15 15 15 16 17 18 18 19 19 20 21 19 13 7 7 6 7 8 8 2 3 1 4 5 2 3 5 8 8 7 6 6 7 7 6 8 6 3 5 6 6 5 6 7 5 7 4 3 4 3 4 6 7 2 4 4 6 6 4 3 4 6 4 3 4 5 1 5 6 8 9 7 7 8 12 13 12 11 11 11 11 10 10 11 9 8 6
14 15 15 15 15 17 17 18 18 19 20 19 17 10 8 3 6 7 8 3 3 3 0 3 3 4 4 4 5 5 6 6 5 8 6 8 8 7 6 5 5 6 7 7 6 6 2 3 3 2 2 5 7 3 5 2 5 5 3 8 4 5 8 1 5 2 1 8 8 8 7 6 6 5 5 8 9 10 10 10 10 10 9 9 8 6 6
14 15 14 14 14 15 16 17 17 17 17 20 16 8 7 5 6 6 7 5 6 3 3 3 5 1 3 6 6 5 6 7 8 8 8 7 6 4 6 4 2 4 5 4 5 3 4 3 3 3 6 4 7 3 3 3 4 2 4 5 4 4 9 4 5 6 8 9 9 9 9 8 8 8 7 6 7 8 10 9 10 10 10 9 9 7 6
14 14 14 14 14 15 16 16 16 16 17 17 11 8 7 4 4 6 7 7 7 3 1 4 3 3 3 6 4 4 8 7 6 6 7 8 9 7 5 6 6 4 5 3 0 3 2 2 4 6 5 4 6 4 5 4 6 4 5 9 10 6 9 6 2 5 3 4 7 9 4 5 7 8 8 8 7 7 8 8 8 8 8 8 7 7 7
14 14 15 13 14 15 16 17 15 16 16 17 10 7 6 3 3 5 5 6 5 4 5 3 4 5 3 5 6 6 7 7 7 6 5 7 7 5 6 7 6 5 5 5 2 3 6 6 4 4 2 5 6 1 6 1 3 2 8 7 7 7 7 6 6 3 5 7 7 1 4 9 6 8 9 9 9 8 7 7 7 8 6 4 7 9 8
14 14 14 14 14 16 16 16 15 15 16 14 8 7 5 1 4 6 6 5 4 6 5 3 2 4 1 6 6 6 5 5 5 5 5 5 6 6 6 5 6 6 3 3 1 2 3 4 3 4 4 6 5 6 5 1 1 6 6 9 8 7 5 7 5 7 9 8 5 4 6 8 8 7 6 5 4 5 6 6 4 3 5 3 5 3 4
14 14 14 14 15 15 16 15 15 14 14 8 7 7 5 6 5 6 8 5 5 5 4 4 0 3 2 4 4 4 4 5 2 2 4 3 4 5 6 5 5 6 3 1 4 3 2 2 1 3 3 4 4 4 3 3 4 5 5 6 2 3 6 7 7 5 7 6 7 8 9 8 6 5 6 5 6 8 8 10 12 9 7 5 3 3 6
15 14 14 14 15 16 15 15 14 15 12 5 5 3 4 1 5 7 10 7 6 5 3 5 1 2 1 3 1 5 4 3 1 3 3 5 0 5 5 6 6 7 4 2 2 3 2 3 3 3 4 6 3 3 3 5 2 8 8 7 6 6 6 4 9 9 5 5 7 8 7 5 3 4 4 6 4 5 5 9 9 8 6 3 4 3 3
15 15 15 15 15 15 14 13 14 12 7 6 5 4 3 3 4 7 8 7 6 5 4 4 1 2 3 3 2 2 4 5 5 6 1 6 4 3 1 4 4 5 4 3 2 0 3 1 0 3 4 2 2 3 4 6 2 8 6 5 6 5 5 5 5 5 5 6 3 5 7 3 7 5 5 2 6 6 4 5 9 6 3 3 5 3 1
15 15 16 16 15 14 13 12 11 7 5 7 8 3 5 2 5 6 6 6 4 5 4 4 2 1 1 5 2 3 5 6 4 4 4 5 3 3 1 4 1 2 3 3 1 2 2 1 2 2 3 0 1 2 4 2 7 5 5 5 5 3 4 3 3 4 3 3 3 3 2 2 6 6 6 5 4 5 3 2 9 8 5 4 4 3 9
15 16 17 16 14 12 11 11 10 9 9 4 3 4 2 6 3 5 6 4 4 4 3 2 1 2 3 3 2 3 4 5 3 3 1 4 4 6 3 4 3 0 2 5 2 3 2 3 3 2 3 2 2 2 2 2 4 4 2 4 4 4 3 2 1 3 2 4 2 4 5 4 5 2 2 1 2 1 5 3 1 1 1 2 3 2 3
16 16 16 14 12 10 9 7 5 5 5 7 4 4 4 4 4 5 4 4 2 2 1 2 2 4 1 2 1 4 5 6 2 4 4 4 2 5 4 3 1 1 3 2 3 3 3 4 4 3 1 2 1 1 2 3 5 3 2 3 5 2 3 2 2 2 2 1 2 3 3 2 2 3 3 3 3 2 3 4 4 2 2 2 1 1 2
16 16 14 10 9 7 5 4 4 5 3 3 4 3 3 8 6 4 5 4 4 4 2 1 2 4 2 4 3 2 5 1 3 2 2 2 2 2 4 3 2 4 4 2 3 2 2 5 2 4 2 3 1 2 4 6 5 3 2 3 1 4 3 3 1 2 1 1 3 4 3 2 4 1 3 2 1 0 1 3 4 2 3 3 1 1 1
16 15 11 7 4 4 5 3 4 3 3 3 6 9 11 8 5 5 5 5 5 4 4 4 3 4 5 2 2 2 4 1 2 2 0 3 4 0 2 3 2 2 2 3 3 0 5 2 3 3 2 2 3 5 5 4 4 4 4 4 2 1 2 3 3 3 3 2 2 2 2 4 2 2 2 1 1 1 3 2 3 3 4 3 2 2 2
13 10 4 4 3 3 2 2 4 2 3 6 7 4 4 3 2 3 2 2 3 2 3 4 3 2 3 2 3 3 5 2 3 3 1 3 3 0 1 2 3 2 4 3 4 6 3 1 2 2 3 3 1 4 2 3 2 2 3 4 3 2 2 2 4 5 6 6 4 2 3 3 3 3 3 0 1 2 1 2 2 3 3 2 1 1 2
7 4 5 4 3 2 2 4 2 1 4 1 2 2 1 1 2 1 2 2 0 2 1 3 3 4 4 1 4 4 5 3 3 3 2 3 2 1 2 4 2 2 2 3 2 3 3 2 2 3 2 4 1 6 4 1 3 3 3 5 5 4 3 1 5 4 4 5 1 0 3 3 3 2 1 1 1 1 2 3 4 4 3 2 3 3 5
4 4 3 4 2 4 4 3 5 2 3 3 2 2 0 1 0 1 1 1 2 1 0 0 4 3 4 5 3 3 4 4 3 3 4 2 3 3 2 3 2 2 3 4 2 2 3 4 2 3 2 1 2 3 4 4 4 4 4 4 5 6 5 3 3 3 5 4 3 1 1 2 2 3 3 2 2 4 4 6 6 4 3 3 1 4 4
3 5 1 3 4 3 5 4 3 4 3 0 0 0 1 1 2 1 2 2 1 2 2 2 1 1 2 1 2 1 3 3 2 3 2 1 3 3 2 2 2 3 2 2 3 2 3 3 3 2 4 3 2 4 2 4 4 5 5 4 5 6 6 6 5 4 5 5 4 2 1 1 1 2 2 1 3 4 3 1 2 2 4 4 5 7 7
4 4 4 6 4 3 3 3 3 1 1 1 0 1 0 0 0 2 1 1 1 1 4 1 2 1 4 4 4 3 3 3 1 2 2 1 2 2 2 2 1 2 2 2 2 3 1 3 2 2 4 6 6 5 5 5 5 6 6 5 5 6 7 6 5 4 3 5 4 3 0 1 2 2 4 2 4 5 6 7 6 2 2 2 3 2 3
13 9 5 3 3 2 3 1 1 1 1 0 0 0 1 1 2 2 2 1 0 1 3 2 3 1 3 4 1 1 3 4 3 0 1 1 1 1 2 2 1 3 2 4 3 2 3 2 3 2 2 1 4 4 5 6 7 6 7 5 2 3 7 6 4 4 4 5 5 3 1 1 3 2 2 4 2 4 3 3 5 4 4 6 5 5 3
4 4 3 2 1 0 1 1 0 0 1 1 2 3 2 3 2 1 2 3 2 2 3 1 0 3 1 0 2 0 1 2 0 1 1 0 1 1 0 2 2 2 3 3 3 5 3 2 2 3 5 6 2 3 4 5 4 6 8 9 6 3 4 5 4 4 5 5 5 2 2 3 4 2 2 3 2 3 3 3 5 6 7 8 6 4 3
3 0 0 0 0 0 1 1 1 1 3 2 3 1 2 1 2 1 2 3 2 4 2 1 1 1 1 3 2 2 2 1 3 1 1 1 3 2 2 3 2 2 3 5 3 4 2 3 2 3 3 4 5 5 6 5 6 6 7 8 8 6 4 5 5 4 4 5 4 3 3 4 4 3 2 3 2 3 5 6 6 8 6 5 3 5 6
2 2 3 2 1 3 1 1 2 3 2 2 2 1 2 3 2 3 3 2 2 4 1 2 2 1 3 1 2 0 1 2 3 1 0 1 2 3 2 3 2 4 3 3 4 4 3 3 4 5 3 5 4 5 5 5 4 5 5 6 6 8 7 5 5 5 4 4 4 4 3 3 4 4 3 2 3 4 3 4 5 6 6 5 7 7 4
0 1 1 2 1 1 2 2 4 2 3 3 1 2 3 4 6 6 5 0 1 2 2 3 3 2 3 1 1 1 1 0 2 1 1 2 2 2 0 2 3 2 4 4 4 3 3 3 2 2 2 1 3 4 4 5 5 6 6 5 6 6 6 6 6 7 6 6 5 5 4 4 4 3 3 3 3 3 4 5 5 4 5 7 7 2 4
1 1 1 1 2 2 5 4 3 2 1 2 2 2 3 3 3 2 2 0 4 2 3 2 2 0 2 2 1 3 2 1 2 2 1 2 0 2 1 2 3 3 2 3 4 3 4 4 2 2 5 5 4 5 4 3 4 5 6 6 6 8 5 3 2 5 8 5 5 6 6 4 3 3 4 5 5 5 5 6 6 6 6 6 5 5 5
2 2 1 2 2 2 3 1 2 4 2 2 0 2 2 2 3 4 2 3 1 1 3 2 2 2 2 1 2 1 2 1 1 1 1 1 1 2 2 3 3 4 2 2 4 3 3 3 4 3 4 5 4 4 4 3 5 5 6 7 6 6 10 10 5 5 9 7 2 4 3 5 3 2 4 4 5 5 5 5 5 5 6 7 6 6 6
2 3 2 3 2 4 3 1 3 1 4 3 2 2 2 1 3 5 3 2 2 2 1 2 1 2 2 1 2 1 2 1 2 1 2 3 3 3 3 6 4 4 3 2 4 3 3 3 4 4 5 5 5 5 5 5 5 5 6 7 6 4 4 6 6 7 5 4 4 4 8 9 5 5 6 6 5 4 4 4 5 5 6 6 7 6 6
1 2 3 4 4 2 0 2 1 2 3 2 1 0 1 0 3 4 2 3 0 1 1 2 0 2 2 2 1 2 0 2 2 4 3 4 2 3 5 5 5 3 3 2 3 3 5 4 3 3 5 6 6 6 6 7 6 6 6 7 6 6 6 6 7 7 7 5 3 1 3 9 9 6 7 6 3 6 5 5 5 6 7 7 7 7 6
2 3 3 3 4 4 3 3 3 2 2 2 1 4 3 1 3 5 1 4 2 3 2 0 2 2 1 4 2 2 2 2 3 2 4 3 2 4 4 4 5 4 5 5 5 4 4 3 3 3 6 6 7 7 7 8 7 6 7 6 6 6 7 7 7 6 6 6 5 6 7 8 11 7 2 6 10 8 6 5 5 7 6 6 5 6 7
Wind_Direction
342 342 342 341 340 340 339 339 337 341 343 347 350 317 287 253 226 72 160 163 223 244 276 270 252 246 260 280 276 273 251 252 264 275 286 296 309 292 262 257 249 244 286 310 288 290 298 188 198 218 221 282 279 9 332 317 303 205 218 223 134 120 230 194 213 250 265 262 297 299 280 303 268 240 271 268 233 229 216 202 182 240 141 229 207 239 107
343 343 343 342 340 339 339 338 338 340 354 340 313 301 296 321 12 148 141 184 223 275 293 316 321 305 298 291 286 278 290 304 275 258 279 275 262 261 262 256 244 264 241 245 268 268 277 260 204 176 203 229 232 271 303 318 284 243 45 248 75 245 216 267 255 183 261 223 343 318 329 323 301 290 253 252 270 218 254 327 58 270 253 272 266 231 158
343 343 343 343 342 340 338 338 337 339 344 340 313 306 319 299 280 280 87 340 273 299 348 315 292 293 296 315 309 293 270 267 285 288 280 269 264 254 245 263 262 243 257 270 264 258 259 264 237 105 206 149 188 194 196 321 310 272 132 76 113 217 217 187 231 245 236 234 222 210 294 337 326 318 304 263 263 254 111 335 7 269 247 264 260 97 27
346 344 345 345 344 342 339 338 337 336 342 339 308 290 291 309 340 9 279 24 353 345 327 332 331 312 320 320 272 269 271 262 270 278 272 269 278 293 302 306 306 277 259 235 228 252 240 258 254 156 151 140 222 208 187 87 278 59 80 154 191 213 111 216 223 251 273 254 7 110 14 8 341 323 333 339 302 275 288 150 166 232 10 260 354 158 152
348 346 346 347 345 343 342 340 338 336 335 349 305 277 240 290 7 354 338 343 32 334 20 353 335 338 308 280 336 294 264 273 246 213 281 269 270 275 282 284 283 298 286 281 282 262 263 241 244 239 144 349 63 234 210 198 206 75 228 236 223 180 199 220 230 230 206 156 182 281 314 338 343 352 346 341 5 338 268 256 259 180 196 176 266 154 122
349 348 346 347 347 346 344 341 339 338 330 338 299 280 299 333 64 350 26 303 9 348 3 350 338 318 336 314 333 315 309 273 227 170 250 267 255 280 294 277 256 259 266 267 257 273 266 263 250 245 231 136 154 225 307 252 146 176 223 200 214 210 224 187 207 232 237 212 199 195 260 285 338 336 352 357 3 17 354 290 267 296 284 202 99 108 107
350 348 347 348 349 348 346 341 342 339 332 328 243 313 50 18 56 37 358 21 38 2 351 329 345 309 13 311 12 355 328 342 289 327 35 324 16 271 286 279 283 280 265 250 245 276 295 322 327 31 48 99 169 289 22 313 184 207 212 171 217 248 224 199 200 233 224 219 211 223 242 261 268 288 314 11 24 35 21 6 11 342 137 118 123 107 99
351 349 348 348 350 349 346 344 345 342 337 324 37 37 353 34 339 20 89 99 62 34 10 358 359 13 353 352 14 352 305 54 357 32 50 71 350 15 305 273 249 282 16 29 38 40 19 340 358 328 1 62 100 182 145 280 297 246 224 189 24 295 22 357 231 225 218 207 201 216 239 246 237 225 283 24 12 21 35 18 358 8 75 121 117 106 98
351 350 350 349 348 348 346 347 349 345 343 347 11 55 9 351 45 339 323 0 44 32 37 26 18 18 21 9 352 353 9 354 347 35 24 49 16 8 339 337 333 48 17 25 21 8 357 340 357 327 324 334 192 265 155 177 357 282 101 29 323 294 284 151 239 237 211 199 171 190 229 210 254 242 240 252 40 19 45 33 358 303 149 121 113 111 114
351 352 351 350 349 348 347 349 350 353 337 357 357 28 5 343 13 329 313 319 86 322 45 48 27 34 23 353 323 344 359 11 351 312 9 22 24 2 9 349 21 358 27 4 355 338 330 321 323 319 315 302 291 238 227 233 194 160 70 41 357 318 299 212 205 230 225 182 173 189 189 158 249 237 248 244 179 209 70 52 29 75 153 135 124 115 114
352 353 352 351 350 348 348 350 352 357 357 10 345 354 7 1 336 312 292 258 39 41 5 49 72 85 337 19 350 356 357 4 22 352 18 350 16 2 5 16 11 27 22 350 322 312 304 297 288 276 265 271 272 251 261 266 283 102 127 98 194 312 35 349 319 256 119 6 146 170 207 227 255 338 328 246 207 140 99 74 50 24 49 299 102 106 109
353 354 352 352 350 349 349 349 350 355 1 336 314 307 15 338 317 296 296 20 44 36 35 25 89 143 82 13 347 356 350 10 21 5 12 342 350 3 3 10 9 19 357 322 321 311 290 263 252 242 256 255 251 251 258 277 292 84 135 122 147 164 234 202 245 288 58 296 135 207 219 196 355 334 14 55 90 95 95 77 43 86 95 88 100 116 110
353 354 352 352 351 350 350 348 348 351 356 345 327 333 16 344 325 327 2 5 34 357 353 50 44 150 171 196 39 10 353 343 358 357 37 341 348 3 8 353 356 350 331 335 323 306 298 282 244 257 234 217 224 243 259 261 260 246 153 135 152 158 241 265 255 252 132 171 165 216 108 77 56 31 46 74 92 101 91 71 61 29 51 124 117 101 96
353 353 352 351 351 350 350 349 348 348 349 351 328 319 11 5 0 350 353 339 58 25 353 44 10 12 15 34 150 313 334 354 0 349 11 348 347 357 351 345 345 330 331 330 313 312 315 262 266 259 230 238 246 264 347 307 301 351 354 203 132 100 102 143 199 351 261 258 206 230 114 146 108 170 58 11 55 99 324 156 123 105 82 84 99 102 103
354 353 352 351 351 350 350 350 348 348 349 347 316 317 31 11 0 337 313 307 76 69 30 24 5 321 343 22 8 217 266 23 352 352 351 315 353 9 343 341 335 337 331 325 327 312 294 331 310 296 294 293 256 290 63 353 345 304 288 295 172 130 153 120 148 167 279 340 287 183 218 235 86 33 39 53 67 357 335 115 116 118 108 104 108 110 114
354 354 352 352 351 350 350 349 349 349 354 350 339 347 51 10 347 341 321 8 1 51 25 7 352 319 6 29 12 10 347 6 328 173 281 45 32 14 3 344 335 335 340 339 316 319 0 341 313 296 298 281 106 262 9 353 22 312 318 292 255 191 122 151 227 136 134 166 245 284 291 57 335 33 6 2 348 345 355 188 127 130 123 122 121 123 130
354 354 353 352 351 350 350 349 349 351 350 359 339 329 31 6 356 343 320 40 60 59 17 10 359 359 19 21 8 20 353 359 333 7 324 95 64 30 51 344 294 325 354 349 330 322 240 267 302 299 44 9 30 304 292 79 28 316 323 317 117 244 243 233 234 236 190 127 208 235 94 115 20 12 22 4 350 320 305 209 145 116 136 131 130 138 143
354 355 354 352 350 350 350 349 349 350 352 350 347 308 18 6 358 336 311 51 52 53 36 18 23 19 25 10 7 3 360 354 342 328 347 1 32 12 348 7 339 166 153 143 274 309 298 288 300 342 337 53 315 311 353 52 354 285 292 335 329 14 340 294 285 265 225 247 314 84 110 68 359 1 347 354 335 342 184 125 103 203 125 123 100 91 120
353 354 355 354 352 351 350 350 349 349 351 354 345 323 45 -0 358 350 346 65 41 63 29 32 36 43 15 23 22 9 25 2 347 350 9 350 16 335 314 22 353 359 353 329 291 309 300 255 187 248 344 123 256 25 122 96 300 22 327 317 319 330 350 305 282 327 292 137 116 62 63 323 285 327 35 337 286 129 96 111 292 90 84 91 92 90 80
352 353 354 354 353 352 351 350 348 347 348 351 352 321 4 19 2 359 359 5 70 59 40 40 29 42 40 32 21 25 13 24 9 5 6 356 353 323 259 166 28 344 16 340 15 55 323 359 32 353 180 306 65 333 322 188 20 6 9 352 309 21 347 8 29 349 320 282 152 133 100 24 309 310 38 10 49 106 180 113 70 71 79 81 88 88 89
351 351 352 354 353 353 351 349 349 347 346 346 349 320 353 32 352 355 348 343 26 67 67 41 52 48 37 41 33 26 27 26 13 1 352 348 339 338 42 22 11 2 15 355 331 19 312 347 9 1 21 281 92 237 340 46 68 74 4 360 43 12 304 17 63 14 323 34 57 62 65 37 17 32 66 51 50 45 43 64 64 47 64 78 69 69 90
351 350 350 351 351 352 351 350 348 347 346 348 342 317 33 27 360 345 338 319 53 76 57 36 66 74 57 48 51 45 35 16 26 5 351 343 345 26 30 24 35 6 25 337 350 353 35 3 312 325 356 30 12 339 2 307 239 79 61 356 37 15 52 21 58 31 31 65 96 111 95 72 61 74 96 83 52 50 53 55 65 79 71 65 66 55 41
349 350 349 349 350 351 351 349 348 345 346 349 353 340 355 353 4 335 317 293 156 168 214 169 94 55 70 71 50 27 57 38 19 23 10 345 348 57 28 17 20 350 34 10 8 349 11 356 4 342 313 36 359 321 294 207 348 52 41 66 68 73 65 104 94 83 81 80 91 94 85 84 82 66 62 69 79 80 79 78 73 65 77 69 64 61 77
350 349 349 349 347 349 349 348 347 344 343 344 345 322 331 339 355 342 317 33 344 109 99 37 349 51 17 24 38 35 10 49 32 38 31 3 3 47 63 37 352 350 31 11 356 338 345 322 330 337 355 51 324 343 3 29 39 12 317 129 83 46 355 35 72 134 199 94 120 98 93 89 68 74 76 71 63 70 75 79 81 84 78 78 76 80 66
348 348 348 349 347 346 346 345 345 343 340 342 340 313 285 332 11 342 339 340 328 311 10 90 63 359 321 40 29 33 20 12 26 40 37 52 28 24 26 6 353 354 351 350 326 311 264 334 346 334 54 37 329 358 29 333 78 2 326 52 1 76 321 344 88 71 87 121 124 115 112 114 113 102 94 77 78 80 77 82 84 82 82 86 91 91 80
348 347 345 347 346 344 342 342 342 340 338 336 333 318 334 13 355 340 326 330 308 297 295 72 80 84 355 29 23 28 7 28 14 42 27 46 73 23 14 338 208 234 282 303 336 335 355 21 355 29 9 46 338 345 33 36 285 130 41 52 24 284 286 61 75 97 98 106 121 134 137 132 117 103 90 91 96 96 101 98 94 86 86 83 73 65 85
344 343 342 342 342 342 340 339 339 338 335 335 329 313 320 4 21 6 3 349 329 243 231 93 85 120 111 60 352 39 25 28 18 20 41 34 31 32 22 6 2 28 3 335 279 308 278 101 34 14 4 19 329 346 350 1 16 358 50 53 8 12 32 352 133 118 150 145 140 138 138 139 123 118 120 118 114 108 106 104 102 109 108 109 114 118 114
341 338 337 338 339 339 337 335 335 334 333 327 308 297 291 343 46 27 17 0 345 344 320 310 108 52 307 52 355 49 28 38 14 14 9 31 26 27 29 18 11 17 10 349 40 31 21 34 30 4 359 28 346 194 131 332 247 262 68 55 51 43 32 25 23 20 89 123 135 99 70 121 125 129 135 140 152 140 107 102 121 124 116 121 142 145 132
337 336 334 334 337 334 333 330 330 329 328 321 296 291 256 262 28 54 27 347 322 313 309 310 177 182 160 56 345 34 64 52 39 12 9 24 24 13 38 16 24 352 11 345 339 56 46 52 15 13 2 8 310 323 319 205 118 91 78 71 65 72 30 41 47 83 78 76 53 354 115 131 130 123 122 109 86 100 129 131 117 138 115 142 101 48 11
334 333 331 331 330 329 326 324 324 320 327 313 296 278 237 123 22 31 12 348 335 325 309 317 26 76 121 56 28 327 6 55 24 44 15 2 16 20 24 343 35 346 312 52 349 36 21 74 72 72 21 57 336 327 321 334 83 80 74 83 37 136 92 74 40 79 93 66 62 70 92 107 121 119 102 100 67 40 62 67 48 41 85 51 35 100 107
330 330 327 327 324 321 320 319 317 318 317 295 282 282 292 196 68 6 357 340 330 317 318 288 308 103 104 120 154 334 331 359 32 11 352 318 252 42 28 1 53 350 12 25 50 54 342 42 1 95 103 33 347 328 332 305 80 87 53 59 66 46 46 62 136 128 139 129 125 122 121 125 155 153 85 82 115 183 153 98 77 60 23 32 77 69 335
326 324 322 321 319 316 312 312 310 316 294 302 338 355 22 358 342 326 319 316 317 284 279 290 277 215 147 130 123 241 300 347 289 204 224 346 24 7 185 73 60 36 13 354 348 261 35 312 69 334 64 24 278 325 327 312 24 97 101 84 61 46 54 42 353 80 96 119 138 189 129 142 66 62 112 100 63 49 16 90 104 97 138 243 122 103 112
321 318 317 316 315 310 307 302 305 314 311 325 306 28 58 355 270 273 333 328 285 265 278 279 351 358 5 76 180 96 322 274 282 353 64 357 26 311 7 39 76 117 108 255 326 52 188 229 219 232 77 158 317 317 323 333 55 71 68 76 86 77 69 36 85 62 67 37 13 14 57 101 103 136 135 161 144 104 120 227 147 137 152 199 207 200 190
317 315 313 313 311 309 299 298 294 292 268 254 221 177 108 2 327 27 334 290 285 291 273 283 253 228 126 183 211 82 309 339 68 289 114 69 0 301 34 272 128 283 79 343 24 279 245 291 24 57 186 111 0 310 303 50 44 358 46 98 101 107 92 118 124 112 73 80 36 62 62 70 80 41 0 351 151 222 340 339 127 133 269 328 306 59 56
312 312 311 310 308 306 300 293 272 225 238 244 92 65 355 336 318 300 302 315 293 203 212 252 280 284 187 169 140 81 317 295 353 21 344 47 319 1 339 302 200 190 106 264 264 295 49 53 10 303 91 121 228 96 262 314 85 75 4 132 133 129 140 211 211 145 139 70 141 123 142 144 146 215 179 208 248 117 151 260 279 219 257 235 243 85 80
309 306 314 316 297 272 257 218 245 249 241 28 45 47 5 291 274 255 254 259 269 324 281 155 204 263 336 6 83 77 311 306 32 23 70 294 232 64 334 345 313 69 321 318 317 322 64 37 336 304 99 241 322 349 53 28 24 22 62 325 129 190 179 220 76 60 335 135 41 40 352 332 284 313 292 295 31 342 287 307 297 255 239 239 237 10 7
304 311 305 288 254 202 222 218 141 26 28 332 315 308 290 286 246 247 234 231 208 203 294 328 307 28 14 75 115 71 305 41 328 281 94 17 356 306 347 306 25 23 280 221 240 289 82 23 319 296 278 297 19 39 25 28 356 343 356 358 355 301 207 189 168 161 224 190 185 233 225 251 243 247 266 257 161 277 310 283 280 272 246 241 211 220 227
304 299 266 211 212 219 166 73 44 29 334 285 268 277 195 199 222 177 194 223 146 195 230 250 281 64 208 293 67 17 293 354 15 336 36 45 300 11 18 300 57 329 316 353 51 356 319 292 249 296 295 284 107 116 65 28 345 357 294 269 278 304 272 167 150 179 201 211 204 231 260 244 275 286 291 289 42 314 303 275 241 230 254 266 279 276 264
290 257 232 236 233 349 37 76 125 263 271 237 261 276 187 230 226 154 147 102 201 227 96 307 50 358 355 20 108 69 2 337 307 311 347 93 309 55 47 321 81 305 332 288 86 4 286 282 257 255 276 45 16 54 47 333 355 318 317 322 316 301 301 215 141 195 229 258 338 299 286 328 334 314 276 217 181 194 191 206 238 224 224 208 220 221 249
204 219 239 239 79 80 96 127 199 213 228 232 202 266 200 285 242 168 29 225 192 165 170 36 21 16 33 342 355 101 12 318 334 18 347 9 63 341 30 309 42 324 323 312 67 324 303 315 321 296 312 33 80 96 304 24 325 350 337 329 321 303 286 279 190 205 235 246 247 202 106 77 3 335 349 336 214 206 196 207 208 212 193 202 112 274 263
248 282 286 48 77 114 108 153 160 247 241 234 82 278 321 241 302 70 192 225 186 89 353 338 154 180 160 229 292 33 99 300 9 0 288 335 61 279 304 310 19 299 303 292 59 312 315 306 312 314 36 82 85 92 308 322 351 1 335 321 295 295 286 259 219 206 230 243 243 182 148 10 325 307 285 331 268 214 133 90 298 207 174 187 175 221 229
356 313 338 294 317 46 144 176 230 190 347 328 220 258 202 180 217 208 261 285 139 150 149 208 189 8 64 346 5 335 87 26 324 291 301 310 74 315 305 305 350 330 309 11 351 285 287 290 303 306 71 45 41 353 337 353 357 337 325 336 335 310 294 285 264 207 222 257 243 251 304 292 340 325 326 264 237 137 168 184 195 199 275 247 242 242 276
293 263 251 260 190 197 228 186 136 277 154 350 208 13 245 216 202 225 152 141 50 278 93 277 71 79 91 308 261 311 28 4 319 221 257 326 96 240 326 335 331 274 312 337 307 314 299 306 302 330 53 106 69 333 331 355 347 328 319 322 351 326 303 283 241 219 201 257 259 263 312 193 265 278 297 273 260 145 148 190 208 194 208 233 227 227 214
266 248 230 243 184 187 244 233 200 351 315 231 173 171 201 238 189 177 215 133 171 170 94 229 219 292 117 115 291 141 173 160 264 303 281 74 252 285 280 283 270 311 314 272 289 287 309 299 304 354 52 89 135 275 352 339 337 338 339 342 350 333 300 297 302 273 224 211 237 221 246 291 324 299 229 260 252 214 182 191 188 219 227 233 225 230 243
202 207 243 120 290 200 92 353 239 186 229 194 247 189 157 226 120 134 94 105 127 84 253 274 324 288 268 127 246 71 357 308 124 269 358 9 304 313 284 295 331 307 294 299 299 293 305 292 5 28 17 40 51 350 324 336 355 342 331 325 333 329 282 271 263 254 265 260 245 235 243 258 260 273 283 242 256 230 202 209 190 186 225 256 283 252 253
180 194 164 149 24 273 223 194 180 224 215 188 235 336 129 52 52 113 124 268 92 150 171 81 284 315 296 94 286 101 182 286 296 255 284 244 285 291 328 317 304 293 303 300 305 304 318 356 47 74 40 350 357 327 330 343 334 322 314 325 325 326 324 290 260 246 244 233 223 233 244 241 261 282 290 301 249 231 253 242 234 238 199 204 235 241 267
223 346 260 287 287 203 224 215 208 207 168 212 52 57 88 94 60 44 54 47 89 64 96 99 295 333 304 289 263 233 183 28 283 316 298 274 260 296 296 313 312 298 290 292 289 296 308 1 2 1 346 329 345 348 347 337 324 320 318 306 311 314 313 320 308 269 234 229 232 232 235 235 243 236 268 280 263 241 223 246 249 255 262 236 241 227 268
231 233 273 231 217 199 205 224 243 93 327 56 98 35 66 107 127 104 135 334 39 322 28 352 271 216 238 91 318 278 290 209 251 258 266 302 295 248 298 286 270 287 279 285 289 326 28 43 350 353 335 342 334 313 317 322 320 315 309 303 295 299 302 239 198 316 300 278 288 257 238 240 233 256 243 236 239 229 229 215 216 231 235 245 253 248 239
319 292 241 241 251 223 232 158 187 170 136 99 42 133 166 204 134 121 70 32 348 347 37 297 344 346 276 158 247 245 254 125 261 257 163 214 242 279 245 262 277 282 281 279 299 5 7 339 13 358 315 301 294 281 280 277 276 287 300 304 327 344 322 323 319 213 232 241 241 306 286 234 226 215 234 227 237 236 225 221 210 219 226 238 240 239 242
248 217 238 253 242 246 264 102 263 190 151 147 199 240 102 284 92 71 72 127 64 318 296 242 160 300 301 330 284 309 278 245 250 263 262 267 252 250 241 260 265 282 308 342 324 340 346 349 331 296 289 294 299 290 298 315 325 304 290 294 295 276 266 283 303 318 296 228 201 224 282 277 213 206 237 240 220 221 241 234 217 215 233 231 227 239 245
254 280 258 246 263 330 161 214 232 220 179 198 212 180 119 304 100 100 29 294 230 283 260 277 191 234 279 273 277 260 246 12 284 246 242 257 254 254 250 256 263 275 286 305 299 329 337 333 313 306 300 287 283 293 299 286 284 291 287 279 274 284 293 287 276 258 256 242 159 178 299 299 296 323 338 309 239 188 199 225 229 228 223 226 230 226 235
229 227 243 232 238 254 222 89 55 329 37 85 107 64 29 281 90 97 112 274 248 255 266 267 271 277 254 256 253 282 307 265 262 295 284 279 301 286 288 300 320 322 326 316 317 327 319 317 318 302 298 297 294 287 291 294 293 295 282 267 285 302 305 307 295 277 274 273 211 191 204 239 281 287 292 339 339 309 253 226 205 196 219 233 244 238 229